Location: Recife
(8.0585°S, 34.8848°W)
Time: 12:30:10
(UTC-03:00)

Vanguard 1 - Pass Details

Date: 19 April 2026
Orbit: 654 x 3817 km, 34.3° (Epoch: 11 May)

Event Time Altitude Azimuth Distance (km) Brightness Sun altitude
Rises 20:02:06 0° 261° (W) 5,859 14.8 -41.5°
Reaches altitude 10° 20:06:00 10° 270° (W) 5,253 14.4 -42.5°
Maximum altitude 20:20:36 35° 329° (NNW) 4,635 13.5 -46.1°
Drops below altitude 10° 20:40:23 10° 27° (NNE) 6,903 14.2 -50.9°
Sets 20:46:47 0° 36° (NE) 7,832 14.5 -52.5°
